Regional Weather Roundup
Issued by NWS Charleston, SC

Current Version | Previous Version | Text Only | Print | Product List | Glossary Off
Versions: 1 2 3 4 5 6 7 8 9 10 11 12 13 14 15 16 17 18 19 20 21 22 23 24 25 26 27 28 29 30 31 32 33 34 35 36 37 38 39 40 41 42 43 44 45 46 47 48 49 50

808
ASUS42 KCHS 020313
RWRCHS

REGIONAL WEATHER ROUNDUP
NATIONAL WEATHER SERVICE CHARLESTON SC
1100 PM EDT SUN MAY 01 2016

NOTE: "FAIR" INDICATES FEW OR NO CLOUDS BELOW 12,000 FEET WITH NO
SIGNIFICANT WEATHER AND/OR OBSTRUCTIONS TO VISIBILITY.

NOT ALL STATIONS ARE QUALITY CONTROLLED. USE DATA WITH CAUTION...
ESPECIALLY DEWPOINT OBSERVATIONS.

SCZ027-030-031-034>040-042>050-020400-
...SOUTHEAST SOUTH CAROLINA...

CITY           SKY/WX    TMP DP  RH WIND       PRES   REMARKS
N CHARLESTON   CLOUDY    73  69  87 S10       30.06S
WATERFRONT PRK   N/A     74  72  93 S7        30.04R
MOUNT PLEASANT FAIR      73  72  94 S7        30.07S
JOHNS ISLAND   FAIR      73  72  94 S8        30.07S
PINOPOLIS        N/A     73  72  94 VRB2      29.98S
MONCKS CORNER  FAIR      68  66  94 S3        30.05S FOG
SUMMERVILLE    FAIR      72  72 100 CALM      30.06S
BEAUFORT MCAS  CLOUDY    74  72  93 S5        30.06S
BEAUFORT ARPT  FAIR      73  72  94 SE5       30.06S
HILTON HEAD IS PTCLDY    75  73  94 S8        30.07F
WALTERBORO     PTCLDY    72  72 100 S6        30.06F
ALLENDALE      FAIR      70  68  94 CALM      30.04F

...SOUTHERN MIDLANDS AND PEE DEE...

CITY           SKY/WX    TMP DP  RH WIND       PRES   REMARKS
GEORGETOWN     FAIR      66  64  94 CALM      30.07S
KINGSTREE      FAIR      66  64  94 S5        30.04F
ORANGEBURG     CLOUDY    69  67  93 S3        30.04F
BARNWELL       FAIR      72  72 100 CALM      30.05F
AIKEN          FAIR      68  64  88 S7        30.07F
MANNING        NOT AVBL
COLUMBIA       CLOUDY    72  66  81 S5        30.02F
SUMTER         MOCLDY    69  66  91 S7        30.02R
FLORENCE       CLOUDY    67  65  93 S6        30.04R
MYRTLE BEACH   NOT AVBL
N MYRTLE BEACH CLOUDY    70  66  87 S9        30.04S

$$

GAZ063-065-086>088-099>101-113>116-118-119-134>141-150-020400-
...SOUTHEAST GEORGIA...

CITY           SKY/WX    TMP DP  RH WIND       PRES   REMARKS
SAVANNAH ARPT  CLOUDY    71  67  87 S3        30.06F
HUNTER AAF     MOCLDY    74  73  97 VRB5      30.04F
FORT STEWART   CLOUDY    68  66  94 CALM      30.02F
STATESBORO     CLOUDY    72  69  91 CALM      30.04F
SYLVANIA       PTCLDY    69  68  97 CALM      30.06F
CLAXTON        FAIR      69  68  96 CALM      30.05S

...CSRA...CENTRAL AND FAR SOUTHEAST GEORGIA...

CITY           SKY/WX    TMP DP  RH WIND       PRES   REMARKS
THOMSON        CLOUDY    75  67  76 S6        30.07F
AUGUSTA-BUSH   CLOUDY    70  66  87 S6        30.03S
AUGUSTA-DANIEL CLOUDY    73  66  78 S7        30.04F
SWAINSBORO     FAIR      70  66  88 S6        30.06S
VIDALIA        CLOUDY    68  66  94 S5        30.06F
EASTMAN        FAIR      74  65  74 S7        30.07F
HAZLEHURST     MOCLDY    71  67  87 S3        30.06S
ALMA           CLOUDY    69  67  93 E9        30.07S
WAYCROSS       CLOUDY    70  70 100 SE7       30.07F
JESUP          FAIR      72  70  94 CALM      30.08F
BAXLEY         LGT RAIN  70  68  94 SE8       30.07S
BRUNSWICK      MOCLDY    77  73  88 NW3       30.09F
SAINT SIMONS   PTCLDY    74  73  97 CALM      30.07S

$$

SCZ027-028-034-036>038-045-046-048>050-GAZ119-141-020400-
...LAKE AND SUPPLEMENTAL COASTAL OBSERVATIONS...

STATION/POSITION TIME  TEMP    WIND        PRES    WAVE   SWELL
                       AIR SEA DIR/SP/G            HT/PER HT/PER/DIR
                 (UTC) (F)     (DEG/KT/KT) (MB)    (FT/S) (FT/S/D)
WINYAH BAY       NOT AVBL
LAKE MURRAY      0200   74     170/ 10/ 12 1016.3R
ACE BASIN NERRS  NOT AVBL
FORT PULASKI     0200   74 74  150/  4/  5 1018.6R
SAPELO ISLAND    0200   74        CALM     1019.0R

$$

ANZ835-935-AMZ111-154-330-350-352-354-370-450-454-472-020400-
...C-MAN AND BUOY OBSERVATIONS...

STATION/POSITION TIME  TEMP    WIND        PRES    WAVE   SWELL
                       AIR SEA DIR/SP/G            HT/PER HT/PER/DIR
                 (UTC) (F)     (DEG/KT/KT) (MB)    (FT/S) (FT/S/D)
BUOY 41004       0250   75 73  160/ 10/ 12 1017.7F   3/10   3/10
BUOY 41008       NOT AVBL
FOLLY BEACH CMAN 0300   74     180/ 11/ 12 1018.2S
CAPERS NEARSHORE 0208   73 72  170/ 10/ 12 1017.8F
FRIPP NEARSHORE  0208   74 74  170/  8/ 12 1017.5F


STATION/POSITION TIME  TEMP    WIND        PRES    WAVE   SWELL
                       AIR SEA DIR/SP/G            HT/PER HT/PER/DIR
                 (UTC) (F)     (DEG/KT/KT) (MB)    (FT/S) (FT/S/D)
5E ST. MARYS GA  0251      74                N/A     3/ 5
FRYING PAN BUOY  0200   74 72  170/ 12/ 14 1017.6F
BUOY 41025       0250   74 74  190/ 17/ 21 1017.8R   5/10   3/ 70/10
CAPE LOOKOUT NC  0200   70     190/ 12/ 14 1017.2F
BUOY 41002       0250   73 74  140/ 14/ 14 1020.6F   4/ 9   3/ 20/ 9
BUOY 41010       0220   77 77  120/ 12/ 14 1019.2R
ST AUGUSTINE FL  0300   74 73  150/  9/ 10 1018.7R


$$




USA.gov is the U.S. government's official web portal to all federal, state and local government web resources and services.